Regional Weather Roundup
Issued by NWS

Home | Current Version | Previous Version | Text Only | Print | Product List | Glossary On
Versions: 1 2 3 4 5 6 7 8 9 10 11 12 13 14 15 16 17 18 19 20 21 22 23 24 25 26 27 28 29 30 31 32 33 34 35 36 37 38 39 40 41 42 43 44 45 46 47 48 49 50
000
ASUS46 KSEW 170110
RWRWA

WASHINGTON REGIONAL WEATHER ROUNDUP
NATIONAL WEATHER SERVICE SEATTLE WA
600 PM PDT TUE SEP 16 2014

NOTE:"FAIR" INDICATES FEW OR NO CLOUDS BELOW 12,000 FEET WITH NO
SIGNIFICANT WEATHER AND/OR OBSTRUCTIONS TO VISIBILITY.

WAZ505-507>509-170200-
SEATTLE, TACOMA, EVERETT, AND VICINITY

CITY           SKY/WX    TMP DP  RH WIND       PRES   REMARKS
EVERETT        CLOUDY    70  53  54 S10       29.88F
BOEING FIELD   CLOUDY    72  55  55 SW3       29.86F
RENTON         CLOUDY    71  57  61 CALM      29.86F
SEATAC AIRPORT CLOUDY    69  54  58 SW6       29.89S
JBLM-MCCHORD   CLOUDY    69  56  62 NW7       29.88F
PUYALLUP       NOT AVBL
JBLM-FT LEWIS  CLOUDY    69  55  60 W7        29.87F
TACOMA NARROWS CLOUDY    68  54  60 SW6       29.88F
$$

WAZ001-503-506-510-514-515-170200-
NORTH INTERIOR

CITY           SKY/WX    TMP DP  RH WIND       PRES   REMARKS
BELLINGHAM     PTSUNNY   64  52  64 S9        29.84S
FRIDAY HARBOR  PTSUNNY   59  52  77 E6        29.86S
EASTSOUND      PTSUNNY   64  54  68 S14G20    29.81S
PORT ANGELES     N/A     65  53  65 NW8       29.87S
NAS WHIDBEY    PTSUNNY   64  53  67 SW13      29.87S
BURLINGTON     SUNNY     66  55  68 W5        29.87S
$$

WAZ020-022-039-040-504-511-512-170200-
SOUTHWEST INTERIOR

CITY           SKY/WX    TMP DP  RH WIND       PRES   REMARKS
SHELTON        CLOUDY    66  54  65 SW10      29.86F
OLYMPIA        CLOUDY    69  54  58 W6        29.88S
CHEHALIS       FAIR      72  57  60 CALM      29.88S
KELSO          MOSUNNY   72  54  53 W3        29.91S
VANCOUVER      MOSUNNY   71  53  52 W5        29.85F
SCAPPOOSE, OR  MOSUNNY   72  53  51 CALM      29.85F
PORTLAND, OR   PTSUNNY   73  55  53 NW7       29.86F
$$

WAZ021-516-517-170200-
WASHINGTON COAST

CITY           SKY/WX    TMP DP  RH WIND       PRES   REMARKS
FORKS          CLOUDY    63  58  83 S6        29.89F
HOQUIAM        CLOUDY    63  57  81 W7        29.90F
ASTORIA, OR    CLOUDY    63  54  72 W6        29.89F
$$

WAZ019-023-024-040-518-519-170200-
CASCADE MOUNTAINS AND COLUMBIA GORGE

CITY           SKY/WX    TMP DP  RH WIND       PRES   REMARKS
STAMPEDE PASS  NOT AVBL
TROUTDALE, OR  MOSUNNY   75  52  44 W6        29.84F
THE DALLES, OR PTSUNNY   82  46  28 NW21G28   29.75F
$$

WAZ026-027-041>044-520-521-170200-
EAST SLOPES

CITY           SKY/WX    TMP DP  RH WIND       PRES   REMARKS
OMAK           MOSUNNY   86  34  15 CALM      29.76F
WENATCHEE      PTSUNNY   83  40  21 E7        29.76S
ELLENSBURG     PTSUNNY   82  49  31 NE6       29.79F
YAKIMA         MOSUNNY   84  41  21 E5        29.77F
$$

WAZ028-034-035-170200-
COLUMBIA BASIN

CITY           SKY/WX    TMP DP  RH WIND       PRES   REMARKS
EPHRATA        PTSUNNY   83  38  20 SW12      29.76S
MOSES LAKE     PTSUNNY   83  42  23 S9        29.77S
PASCO          PTSUNNY   84  46  26 SE7       29.74F
HERMISTON, OR  PTSUNNY   85  43  22 SE3       29.74S
$$

WAZ036>038-170200-
NORTHEAST WASHINGTON

CITY           SKY/WX    TMP DP  RH WIND       PRES   REMARKS
SPOKANE GEIGER MOCLDY    82  41  23 E3        29.83S
SPOKANE FELTS  MOCLDY    79  43  27 CALM      29.81F
FAIRCHILD AFB  MOCLDY    82  35  18 SW6       29.84S
COEURDALENE,ID MOCLDY    79  45  29 NE8       29.83S
DEER PARK      MOCLDY    81  40  23 NE5       29.83F
$$

WAZ029>033-170200-
SOUTHEAST WASHINGTON

CITY           SKY/WX    TMP DP  RH WIND       PRES   REMARKS
PULLMAN        MOCLDY    81  31  16 CALM      29.87F
LEWISTON, ID   PTCLDY    86  35  16 NW8       29.78S
WALLA WALLA    MOCLDY    84  35  17 SW3       29.78F
PENDLETON, OR  PTSUNNY   84  35  17 NW5       29.79S
$$



USA.gov is the U.S. government's official web portal to all federal, state and local government web resources and services.